Tracking 30918 objects as of 2-Jul-2025
HD Live streaming from Space Station
objects crossing your sky now

SL-8 R/B

Track SL-8 R/B now!
10-day predictions


NORAD ID: 10992
Int'l Code: 1978-074B
Perigee: 963.2 km
Apogee: 991.8 km
Inclination: 82.9 °
Period: 104.5 minutes
Semi major axis: 7348 km
RCS: 4.7594 m2 (large)
Launch date: July 27, 1978
Source: Commonwealth of Independent States (former USSR) (CIS)
Launch site: PLESETSK MISSILE AND SPACE COMPLEX (PKMTR)

Note: This is a ROCKET BODY
Your satellite tracking list
Your tracking list is empty




NASA's NSSDC Master Catalog

Two Line Element Set (TLE):
1 10992U 78074B   25182.74013966  .00000078  00000-0  62588-4 0  9999
2 10992  82.9324 245.4987 0019473 172.1117 307.5451 13.78168231539051
Source of the keplerian elements: AFSPC